Starlink 30388

operational
NORAD ID: 57784 Int'l Des: 2023-134 Owner: SPXS Country: US Constellation: starlink
LEOCIRCULAR

Starlink 30388について

説明を読み込み中...

リアルタイム位置

3D地球を読み込み中...

次回通過

高度履歴

Altitude vs Time

uPlot chart will show altitude changes over time

軌道要素

1 57784U 23134P 25353.13034655 .00000458 00000-0 48944-4 0 9999
2 57784 43.0016 275.1959 0001074 270.4109 89.6610 15.02535687127350
Epoch: Dec 19, 2025 • Age: 23 hours

現在のステータス

高度 558.7 km
速度 7.59 km/s
衛星直下点 17.94°N, 51.29°W
打ち上げ日 Sep 4, 2023
運用期間 2.2 years
タイプ internet

技術仕様

分類 Payload
質量 730.00 kg
乾燥質量 700.00 kg
総質量 730.00 kg
長さ 0.30 m
直径 4.10 m
スパン 29.00 m
形状 Box + pan
製造者 SPXS
バスタイプ Starlink V2M
フェーズステータス In Orbit
所有者/国 SPXS/US

大規模コンステレーション

Loading constellations...